TimeCDT,TemperatureF,Dew PointF,Humidity,Sea Level PressureIn,VisibilityMPH,Wind Direction,Wind SpeedMPH,Gust SpeedMPH,PrecipitationIn,Events,Conditions,WindDirDegrees,DateUTC
12:53 AM,77.0,66.9,71,29.98,10.0,Calm,Calm,-,N/A,,Clear,0,2013-08-24 05:53:00
1:53 AM,75.9,66.9,74,29.98,10.0,Calm,Calm,-,N/A,,Clear,0,2013-08-24 06:53:00
2:53 AM,79.0,66.9,66,29.98,10.0,ESE,4.6,-,N/A,,Clear,110,2013-08-24 07:53:00
3:53 AM,77.0,66.9,71,29.98,10.0,ESE,5.8,-,N/A,,Clear,110,2013-08-24 08:53:00
4:53 AM,75.9,66.0,71,29.98,10.0,East,3.5,-,N/A,,Clear,80,2013-08-24 09:53:00
5:53 AM,75.0,66.0,73,29.99,10.0,East,3.5,-,N/A,,Clear,90,2013-08-24 10:53:00
6:53 AM,73.0,66.9,81,30.02,10.0,NNE,4.6,-,N/A,,Clear,30,2013-08-24 11:53:00
7:53 AM,75.9,68.0,76,30.04,10.0,NE,4.6,-,N/A,,Clear,40,2013-08-24 12:53:00
8:53 AM,79.0,68.0,69,30.05,10.0,ESE,4.6,-,N/A,,Clear,120,2013-08-24 13:53:00
9:53 AM,82.9,69.1,63,30.05,10.0,South,3.5,-,N/A,,Clear,170,2013-08-24 14:53:00
10:53 AM,88.0,69.1,53,30.06,10.0,SSE,6.9,-,N/A,,Clear,160,2013-08-24 15:53:00
11:53 AM,91.0,68.0,47,30.05,10.0,Calm,Calm,-,N/A,,Clear,0,2013-08-24 16:53:00
12:53 PM,93.9,68.0,43,30.04,10.0,East,8.1,-,N/A,,Clear,100,2013-08-24 17:53:00
1:53 PM,97.0,64.9,35,30.02,10.0,ESE,9.2,17.3,N/A,,Clear,110,2013-08-24 18:53:00
2:53 PM,97.0,64.9,35,30.00,10.0,Variable,5.8,-,N/A,,Clear,0,2013-08-24 19:53:00
3:53 PM,98.1,63.0,31,29.97,10.0,Variable,3.5,-,N/A,,Clear,0,2013-08-24 20:53:00
4:33 PM,96.8,64.4,34,30.01,10.0,East,17.3,-,N/A,,Mostly Cloudy,80,2013-08-24 21:33:00
4:53 PM,95.0,64.0,36,29.97,10.0,ESE,13.8,-,N/A,,Partly Cloudy,120,2013-08-24 21:53:00
5:53 PM,96.1,64.9,36,29.97,10.0,East,12.7,-,N/A,,Clear,80,2013-08-24 22:53:00
6:36 PM,89.6,66.2,46,30.01,10.0,SE,16.1,-,N/A,,Clear,130,2013-08-24 23:36:00
6:53 PM,88.0,66.9,49,29.98,10.0,SE,13.8,-,N/A,,Clear,130,2013-08-24 23:53:00
7:53 PM,88.0,64.9,46,29.97,10.0,Calm,Calm,-,N/A,,Clear,0,2013-08-25 00:53:00
8:53 PM,84.0,66.0,55,30.00,10.0,Variable,3.5,-,N/A,,Clear,0,2013-08-25 01:53:00
9:53 PM,82.9,66.0,56,30.02,10.0,ENE,6.9,-,N/A,,Clear,70,2013-08-25 02:53:00
10:53 PM,81.0,66.9,62,30.04,10.0,ENE,3.5,-,N/A,,Clear,70,2013-08-25 03:53:00
11:53 PM,82.0,66.0,58,30.04,10.0,East,8.1,-,N/A,,Clear,100,2013-08-25 04:53:00